Weather Roundup
Issued by NWS Springfield, MO

Home | Current Version | Previous Version | Text Only | Print | Product List | Glossary On
Versions: 1 2 3 4 5 6 7 8 9 10 11 12 13 14 15 16 17 18 19 20 21 22 23 24 25 26 27 28 29 30 31 32 33 34 35 36 37 38 39 40 41 42 43 44 45 46 47 48 49 50
000
NZUS99 KSGF 201307
HRRSGF

HOURLY WEATHER
NATIONAL WEATHER SERVICE SPRINGFIELD MO
800 AM CDT SAT SEP 20 2014

......SGF CWA......

CITY           SKY/WX    TMP DP  RH WIND       PRES   REMARKS
SPRINGFIELD    SUNNY     66  64  93 S9        30.05R FOG
JOPLIN         MOSUNNY   68  68 100 S8        30.04R FOG
WEST PLAINS    SUNNY     64  61  90 CALM      30.10R
ROLLA          SUNNY     65  63  93 S10       30.04R FOG
OSAGE BEACH    SUNNY     64  61  88 CALM      30.04R
BRANSON        MOSUNNY   66  66 100 CALM      30.08R

......SURROUNDING SGF CWA......

CITY           SKY/WX    TMP DP  RH WIND       PRES   REMARKS
CHANUTE        CLOUDY    68  67  96 S7        30.01R FOG
PARSONS        FOG       68  68 100 S5        30.02R VSB 1/4
EMPORIA        CLEAR     68  67  96 S6        29.99R
GROVE OK         N/A     64  64 100 CALM      30.04S FOG
ROGERS AR      PTSUNNY   67  64  90 S5        30.07S
SILOAM SPRINGS CLOUDY    66  63  88 SE5       30.07R
HARRISON AR    SUNNY     65  64  97 E3        30.09R FOG
NEAR YELLVILLE CLOUDY    61  57  88 CALM      30.08R VSB<1/4

......KANSAS AND MISSOURI......

CITY           SKY/WX    TMP DP  RH WIND       PRES   REMARKS
KANSAS CTY INT PTCLDY    68  67  96 SW8       29.99R FOG
DOWNTOWN KC    CLEAR     72  67  84 SW6       29.98R HAZE
COLUMBIA       SUNNY     65  64  97 S5        30.03R
SEDALIA        SUNNY     69  65  86 SW13      30.02R FOG
ST JOSEPH      CLOUDY    67  66  97 N5        29.99R FOG
ST LOUIS       PTSUNNY   69  62  78 SW5       30.03R
SPIRIT OF STL  MOSUNNY   62  59  90 CALM      30.02R FOG
KIRKSVILLE     CLOUDY    66  64  93 CALM      30.02S FOG
WICHITA        PTCLDY    67  65  93 S9        29.97R FOG
TOPEKA         CLEAR     68  66  93 CALM      29.98R FOG
OLATHE         CLEAR     68  67  96 SW5       30.00R FOG

......TENNESSEE......

CITY           SKY/WX    TMP DP  RH WIND       PRES   REMARKS
MEMPHIS        SUNNY     73  65  75 SE6       30.07R
NASHVILLE      MOSUNNY   70  63  78 S7        30.14R

......ARKANSAS.......

CITY           SKY/WX    TMP DP  RH WIND       PRES   REMARKS
FAYETTEVILLE   PTSUNNY   66  66 100 S3        30.07R
FT SMITH       SUNNY     69  67  93 E5        30.05R FOG
LITTLE ROCK    SUNNY     71  67  87 CALM      30.05R

......OKLAHOMA.......

CITY           SKY/WX    TMP DP  RH WIND       PRES   REMARKS
TULSA          PTCLDY    70  69  97 S7        30.00R FOG
PONCA CITY     PTCLDY    70  67  90 S5        29.99R FOG
MCALESTER      PTCLDY    72  69  90 CALM      30.03R FOG
OKLAHOMA CITY  PTCLDY    70  68  93 S5        30.01R FOG

......IOWA............

CITY           SKY/WX    TMP DP  RH WIND       PRES   REMARKS
DES MOINES     LGT RAIN  68  64  87 S9        29.86F
QUAD CITIES    CLOUDY    64  61  90 SW10      29.89F FOG

......ILLINOIS........

CITY           SKY/WX    TMP DP  RH WIND       PRES   REMARKS
QUINCY         MOSUNNY   64  62  93 SW3       30.01R FOG
CHICAGO        CLOUDY    65  55  70 SW13G18   29.89F



USA.gov is the U.S. government's official web portal to all federal, state and local government web resources and services.